Change the Weather History Date:

Saturday, March 23, 2013

  Actual Average (KLVN) Record (KLVN)
Temperature  
Mean Temperature 22 °F -  
Max Temperature 34 °F 42 °F 71 °F (2003)
Min Temperature 11 °F 24 °F -5 °F (1974)
Degree Days  
Heating Degree Days 42    
Moisture  
Dew Point 16 °F    
Average Humidity 69    
Maximum Humidity 84    
Minimum Humidity 52    
Precipitation  
Precipitation 0.00 in - - ()
Sea Level Pressure  
Sea Level Pressure 30.10 in    
Wind  
Wind Speed 2 mph (West)    
Max Wind Speed 13 mph    
Max Gust Speed -    
Visibility 10 miles    
Events      
Averages and records for this station are not official NWS values.
T = Trace of Precipitation, MM = Missing Value Source: NWS Daily Summary

Daily Weather History Graph

Daily Weather History Graph

Search for Another Location

Airport or City:

Trip Planner

Search our weather history database for the weather conditions in past years. The results will help you decide how hot, cold, wet, or windy it might be!

Date:

Astronomy

Mar. 23, 2013 Rise Set
Actual Time 7:09 AM CDT 7:28 PM CDT
Civil Twilight 6:40 AM CDT 7:57 PM CDT
Nautical Twilight 6:05 AM CDT 8:32 PM CDT
Astronomical Twilight 5:30 AM CDT 9:07 PM CDT
Moon 3:48 PM CDT (3/23) 4:53 AM CDT (3/23)
Length of Visible Light 13h 17m
Length of Day
12h 19m
Waxing Gibbous, 85% of the Moon is Illuminated
Mar 23
Waxing Gibbous
Mar 27
Full
Apr 2
Last Quarter
Apr 10
New
Apr 18
First Quarter

Hourly Weather History & Observations

Time (CDT) Temp. Windchill Dew Point Humidity Pressure Visibility Wind Dir Wind Speed Gust Speed Precip Events Conditions
12:13 AM 24.4 °F - 16.3 °F 71% 30.08 in 10.0 mi Calm Calm - N/A   Clear
12:33 AM 25.3 °F - 15.8 °F 67% 30.08 in 10.0 mi Calm Calm - N/A   Clear
12:52 AM 25.2 °F - 16.2 °F 69% 30.07 in 10.0 mi Calm Calm - N/A   Clear
1:13 AM 25.2 °F - 15.8 °F 68% 30.07 in 10.0 mi Calm Calm - N/A   Clear
1:33 AM 23.9 °F - 16.9 °F 75% 30.07 in 10.0 mi Calm Calm - N/A   Clear
1:53 AM 22.1 °F - 16.7 °F 80% 30.07 in 10.0 mi Calm Calm - N/A   Scattered Clouds
2:13 AM 23.2 °F - 16.5 °F 76% 30.06 in 10.0 mi Calm Calm - N/A   Mostly Cloudy
2:32 AM 23.0 °F - 16.2 °F 75% 30.05 in 10.0 mi Calm Calm - N/A   Scattered Clouds
2:53 AM 21.6 °F - 15.1 °F 76% 30.05 in 10.0 mi Calm Calm - N/A   Clear
3:12 AM 19.6 °F 14.5 °F 15.4 °F 84% 30.05 in 10.0 mi West 3.5 mph - N/A   Clear
3:33 AM 18.7 °F 13.5 °F 13.3 °F 79% 30.06 in 10.0 mi SW 3.5 mph - N/A   Clear
3:53 AM 18.0 °F 12.7 °F 13.1 °F 81% 30.08 in 10.0 mi SSW 3.5 mph - N/A   Clear
4:12 AM 17.6 °F - 13.5 °F 84% 30.07 in 10.0 mi Calm Calm - N/A   Clear
4:33 AM 15.3 °F 7.9 °F 10.8 °F 82% 30.10 in 10.0 mi SSW 4.6 mph - N/A   Clear
4:53 AM 16.3 °F 10.8 °F 12.0 °F 83% 30.10 in 10.0 mi South 3.5 mph - N/A   Clear
5:12 AM 15.8 °F 7.2 °F 10.8 °F 80% 30.11 in 10.0 mi SW 5.8 mph - N/A   Clear
5:33 AM 16.3 °F - 10.8 °F 79% 30.11 in 10.0 mi Calm Calm - N/A   Clear
5:52 AM 17.6 °F - 11.8 °F 78% 30.12 in 10.0 mi Calm Calm - N/A   Clear
6:13 AM 17.6 °F - 11.8 °F 78% 30.11 in 10.0 mi Calm Calm - N/A   Clear
6:33 AM 17.6 °F - 12.6 °F 81% 30.10 in 10.0 mi Calm Calm - N/A   Clear
6:52 AM 15.1 °F - 10.6 °F 82% 30.11 in 10.0 mi Calm Calm - N/A   Clear
7:13 AM 12.2 °F 6.1 °F 7.7 °F 82% 30.11 in 10.0 mi South 3.5 mph - N/A   Clear
7:32 AM 14.2 °F 6.7 °F 10.0 °F 84% 30.11 in 10.0 mi SSW 4.6 mph - N/A   Clear
8:12 AM 11.7 °F - 7.5 °F 83% 30.11 in 7.0 mi Calm Calm - N/A   Clear
8:33 AM 14.0 °F 8.2 °F 9.7 °F 83% 30.13 in 10.0 mi SSW 3.5 mph - N/A   Clear
8:53 AM 15.4 °F - 10.8 °F 82% 30.11 in 10.0 mi Calm Calm - N/A   Clear
9:12 AM 17.1 °F - 11.5 °F 79% 30.11 in 10.0 mi Calm Calm - N/A   Clear
9:33 AM 18.5 °F - 12.9 °F 79% 30.12 in 10.0 mi Calm Calm - N/A   Clear
9:53 AM 21.0 °F - 14.7 °F 77% 30.12 in 10.0 mi Calm Calm - N/A   Clear
10:12 AM 21.9 °F - 14.7 °F 74% 30.13 in 10.0 mi Calm Calm - N/A   Clear
10:33 AM 24.3 °F - 15.6 °F 70% 30.13 in 10.0 mi Calm Calm - N/A   Clear
10:53 AM 25.2 °F - 15.8 °F 68% 30.13 in 10.0 mi Calm Calm - N/A   Clear
11:12 AM 26.6 °F - 16.2 °F 65% 30.13 in 10.0 mi Calm Calm - N/A   Clear
11:33 AM 27.9 °F - 17.1 °F 64% 30.14 in 10.0 mi Calm Calm - N/A   Clear
11:53 AM 28.4 °F - 17.4 °F 63% 30.14 in 10.0 mi Calm Calm - N/A   Clear
12:12 PM 29.3 °F - 17.2 °F 61% 30.15 in 10.0 mi Calm Calm - N/A   Clear
12:33 PM 29.8 °F - 17.1 °F 59% 30.14 in 10.0 mi Calm Calm - N/A   Clear
12:53 PM 30.6 °F 27.1 °F 18.1 °F 60% 30.13 in 10.0 mi SSW 3.5 mph - N/A   Clear
1:12 PM 31.3 °F - 18.0 °F 58% 30.12 in 10.0 mi Calm Calm - N/A   Clear
1:33 PM 32.2 °F - 16.9 °F 53% 30.12 in 10.0 mi Calm Calm - N/A   Clear
1:53 PM 32.2 °F - 17.1 °F 54% 30.13 in 10.0 mi Calm Calm - N/A   Clear
2:12 PM 32.9 °F - 17.1 °F 52% 30.12 in 10.0 mi Calm Calm - N/A   Clear
2:33 PM 32.9 °F - 18.0 °F 54% 30.11 in 10.0 mi Calm Calm - N/A   Clear
2:53 PM 33.1 °F - 18.0 °F 54% 30.10 in 10.0 mi Calm Calm - N/A   Clear
3:13 PM 33.4 °F - 18.5 °F 54% 30.08 in 10.0 mi Calm Calm - N/A   Clear
3:32 PM 33.4 °F - 17.8 °F 53% 30.08 in 10.0 mi Calm Calm - N/A   Clear
3:53 PM 33.1 °F - 20.7 °F 60% 30.08 in 10.0 mi Calm Calm - N/A   Clear
4:12 PM 33.8 °F 30.8 °F 19.2 °F 55% 30.07 in 10.0 mi WNW 3.5 mph - N/A   Clear
4:33 PM 34.7 °F 29.6 °F 19.2 °F 53% 30.07 in 10.0 mi NW 5.8 mph - N/A   Clear
4:53 PM 34.7 °F 29.6 °F 19.6 °F 54% 30.07 in 10.0 mi NW 5.8 mph - N/A   Clear
5:12 PM 34.7 °F 30.6 °F 19.9 °F 55% 30.07 in 10.0 mi WNW 4.6 mph - N/A   Clear
5:33 PM 34.3 °F 28.4 °F 20.3 °F 57% 30.07 in 10.0 mi WNW 6.9 mph - N/A   Clear
5:52 PM 33.8 °F 29.6 °F 19.2 °F 55% 30.07 in 10.0 mi WNW 4.6 mph - N/A   Clear
6:13 PM 33.3 °F 28.9 °F 19.9 °F 58% 30.08 in 10.0 mi WNW 4.6 mph - N/A   Clear
6:33 PM 32.2 °F 25.8 °F 20.1 °F 61% 30.08 in 10.0 mi WNW 6.9 mph - N/A   Clear
6:53 PM 32.0 °F 24.2 °F 19.6 °F 60% 30.08 in 10.0 mi West 9.2 mph - N/A   Clear
7:13 PM 31.5 °F 24.2 °F 19.0 °F 60% 30.08 in 10.0 mi West 8.1 mph - N/A   Clear
7:33 PM 30.7 °F 23.3 °F 18.5 °F 60% 30.09 in 10.0 mi WNW 8.1 mph - N/A   Scattered Clouds
7:53 PM 29.8 °F 22.2 °F 18.9 °F 64% 30.10 in 10.0 mi WNW 8.1 mph - N/A   Clear
8:13 PM 28.6 °F 21.5 °F 19.2 °F 68% 30.10 in 10.0 mi WNW 6.9 mph - N/A   Clear
8:33 PM 28.9 °F 21.1 °F 19.2 °F 67% 30.09 in 10.0 mi NW 8.1 mph - N/A   Clear
8:53 PM 30.0 °F 20.0 °F 18.5 °F 62% 30.08 in 10.0 mi NNW 12.7 mph - N/A   Clear
9:13 PM 28.9 °F 19.8 °F 19.0 °F 67% 30.10 in 10.0 mi NW 10.4 mph - N/A   Clear
9:33 PM 28.2 °F 20.2 °F 19.2 °F 69% 30.10 in 10.0 mi NW 8.1 mph - N/A   Clear
9:53 PM 27.1 °F 23.2 °F 18.7 °F 70% 30.10 in 10.0 mi WNW 3.5 mph - N/A   Clear
10:13 PM 27.1 °F - 18.9 °F 71% 30.10 in 10.0 mi Calm Calm - N/A   Clear
10:33 PM 27.0 °F 23.0 °F 18.7 °F 71% 30.10 in 10.0 mi SW 3.5 mph - N/A   Clear
10:53 PM 27.0 °F 23.0 °F 19.4 °F 73% 30.10 in 10.0 mi WSW 3.5 mph - N/A   Clear
11:13 PM 25.5 °F - 19.6 °F 78% 30.10 in 10.0 mi Calm Calm - N/A   Scattered Clouds
11:32 PM 25.5 °F - 19.9 °F 79% 30.09 in 10.0 mi Calm Calm - N/A   Clear
11:53 PM 26.1 °F - 20.3 °F 79% 30.08 in 10.0 mi Calm Calm - N/A   Clear